| Station | Date | Time | Temp (°F) | RH (%) | Dew Pt (°F) | Wind Spd (mph) | Wind Dir (°) | Wind Gust (mph) | Wind Gst Dir (°) | Latest Rain (In) | Soil Moist (%) | Soil Temp (°F) | Daily Rain (In) | Daily Min Temp (°F) | Daily Max Temp (°F) | Daily Max Wind (mph) |
|---|---|---|---|---|---|---|---|---|---|---|---|---|---|---|---|---|
| Hobart Mills | 5/3/26 | 2040 | 42.6 2.6 | 94 4 | 41.0 3.8 | 0.0 0.0 | N | 0 | 0.0 0.0 | N | 0 | 0.00 | - | 32.0 0.0 | 0.04 | 37.5 2.5 | 61.5 1.5 | 13.2 0.9 |
| Prosser Dam | 5/3/26 | 2040 | 44.9 2.7 | 84 8 | 40.3 5.0 | 2.3 0.1 | SE | 134 | 3.6 0.9 | SE | 136 | 0.00 | 20.8 0.3 | 49.2 0.3 | 0.06 | 39.2 5.7 | 64.2 0.3 | 31.6 14.3 |
| West Incline Village | 5/3/26 | 2040 | 39.3 4.8 | 93 9 | 37.5 2.1 | 0.6 1.4 | NE | 45 | 2.1 4.0 | ENE | 63 | 0.00 | 30.6 0.1 | 44.5 0.1 | 0.20 | 37.2 4.7 | 58.5 1.3 | 28.7 15.9 |
| Incline Village (Fairview Blvd) | 5/3/26 | 2040 | 40.7 4.3 | 94 8 | 39.0 2.1 | 0.0 0.9 | N | 0 | 0.0 5.6 | NE | 35 | 0.00 | 26.0 1.8 | 52.0 0.1 | 0.19 | 39.0 5.3 | 60.3 1.7 | 18.1 8.2 |
| Incline Village (Diamond Peak) | 5/3/26 | 2040 | 38.7 | 93 | 36.9 | 1.0 | N | 7 | 1.0 | N | 6 | 0.00 | 8.4 | 45.4 | 0.02 | 36.4 | 54.9 | 19.5 |
| Incline Village (Mill Creek) | 5/3/26 | 2040 | 41.4 7.2 | 91 22 | 38.9 0.1 | 0.0 2.7 | N | 0 | 0.0 11.4 | ENE | 68 | 0.00 | 9.7 0.2 | 46.2 0.4 | 0.17 | 40.1 3.9 | 59.6 1.0 | 21.7 8.8 |
| Incline Village (Lakeshore Blvd) | 5/3/26 | 2040 | 43.4 5.9 | 93 20 | 41.7 0.5 | 0.1 3.8 | N | 1 | 1.4 11.3 | N | 1 | 0.00 | 34.7 2.6 | 53.4 0.8 | 0.13 | 41.8 2.2 | 63.0 1.8 | 23.7 8.3 |
| Glenbrook | 5/3/26 | 2040 | 41.8 10.9 | 90 33 | 39.1 1.0 | 1.0 9.3 | NNE | 23 | 3.4 12.3 | NE | 34 | 0.00 | 44.3 0.0 | 45.3 0.5 | 0.10 | 41.3 0.9 | 60.2 1.0 | 21.7 0.5 |
| Zephyr Cove | 5/3/26 | 2040 | 42.3 11.6 | 87 35 | 38.7 1.9 | 0.0 0.0 | N | 0 | 0.0 0.0 | NNE | 22 | 0.00 | - | 34.3 0.0 | 0.01 | 42.0 1.1 | 60.1 2.8 | 6.1 1.5 |
| Kingsbury Grade | 5/3/26 | 2040 | 40.5 11.5 | 91 37 | 38.1 2.0 | 0.9 3.2 | NNE | 14 | 2.6 6.0 | NNE | 13 | 0.00 | 7.2 0.1 | 54.5 1.7 | 0.18 | 40.1 1.7 | 57.1 4.5 | 23.8 7.1 |
| South Daggett Pass (Ridge) | 5/3/26 | 2040 | 38.1 10.9 | 89 29 | 35.1 0.6 | 0.8 2.3 | W | 279 | 4.5 2.6 | W | 260 | 0.00 | 6.5 0.1 | 48.6 0.1 | 0.13 | 37.7 7.2 | 53.1 4.9 | 25.6 6.7 |
| Palomino Valley | 5/3/26 | 2040 | 57.0 2.1 | 48 1 | 37.5 2.7 | 0.1 1.6 | NNW | 345 | 1.6 3.5 | N | 349 | 0.00 | 6.8 0.0 | 64.7 0.1 | 0.00 | 49.8 8.0 | 74.2 0.5 | 45.8 17.1 |
| East Cold Springs | 5/3/26 | 2040 | 48.6 1.0 | 66 13 | 37.6 5.7 | 5.4 2.8 | W | 275 | 8.3 3.4 | W | 271 | 0.00 | 1.5 0.0 | 56.1 0.2 | 0.00 | 47.5 0.6 | 68.0 2.1 | 38.4 19.8 |
| Peavine | 5/3/26 | 2040 | 44.9 2.9 | 75 1 | 37.4 3.2 | 2.0 4.4 | SSE | 152 | 4.3 4.7 | SSW | 205 | 0.00 | - | 53.4 0.0 | 0.01 | 44.5 2.2 | 63.9 0.4 | 53.2 30.7 |
| West Verdi Peak | 5/3/26 | 2040 | 45.0 2.3 | 70 7 | 35.6 4.5 | 1.1 0.3 | N | 350 | 3.0 2.6 | NW | 307 | 0.00 | 16.3 0.4 | 51.6 0.1 | 0.07 | 40.9 5.1 | 65.0 3.5 | 26.8 10.8 |
| West Verdi | 5/3/26 | 2040 | 48.5 2.6 | 76 4 | 41.1 3.7 | 4.2 3.5 | WNW | 284 | 5.5 2.0 | W | 264 | 0.00 | 7.8 0.1 | 60.9 0.9 | 0.15 | 46.7 0.0 | 68.6 1.4 | 36.8 17.3 |
| South Verdi | 5/3/26 | 2040 | 48.3 3.4 | 71 1 | 39.2 2.7 | 12.4 10.6 | WSW | 248 | 14.8 10.9 | WSW | 248 | 0.00 | 16.4 0.3 | 58.6 2.4 | 0.13 | 45.8 0.0 | 66.0 0.0 | 59.0 34.5 |
| Northwest Reno | 5/3/26 | 2040 | 52.3 1.9 | 57 8 | 37.5 5.2 | 8.9 5.8 | N | 6 | 10.9 4.3 | N | 8 | 0.00 | 24.0 0.4 | 63.0 1.7 | 0.03 | 48.7 2.9 | 69.6 1.3 | 60.1 31.7 |
| North Lawton | 5/3/26 | 2040 | 50.4 1.9 | 64 8 | 38.8 4.9 | 8.2 5.7 | WSW | 250 | 12.0 8.0 | W | 266 | 0.00 | - | 39.1 0.0 | 0.03 | 47.9 2.2 | 70.9 3.4 | 40.2 21.4 |
| West Reno (Mogul) | 5/3/26 | 2040 | 51.0 1.9 | 65 8 | 39.5 5.0 | 3.6 1.3 | NW | 311 | 7.2 0.4 | NW | 317 | 0.00 | 38.6 0.3 | 61.0 0.2 | 0.02 | 48.1 0.7 | 68.9 0.7 | 49.7 21.6 |
| Caughlin (Hunter Lake Trail) | 9/16/25 | 0800 | 59.7 3.5 | 41 11 | 35.9 2.7 | 0.0 0.0 | N | 0 | 0.0 0.0 | ENE | 66 | 0.00 | 15.7 0.0 | 69.8 0.5 | 0.00 | 55.7 3.2 | 67.7 9.1 | 9.4 0.9 |
| ArrowCreek | 5/3/26 | 2040 | 52.8 1.9 | 60 5 | 39.1 4.0 | 0.0 3.3 | SE | 132 | 1.2 5.5 | SE | 125 | 0.00 | - | 32.0 0.0 | 0.19 | 49.0 0.1 | 69.5 1.3 | 57.0 28.1 |
| Tracy | 5/3/26 | 2040 | 58.7 2.0 | 45 3 | 37.6 3.5 | 6.2 4.6 | WSW | 250 | 8.9 7.5 | WSW | 254 | 0.00 | 8.0 0.1 | 63.7 0.2 | 0.00 | 51.1 3.1 | 73.8 0.3 | 47.8 24.6 |
| Virginia Highlands | 5/3/26 | 2040 | 48.2 0.8 | 62 18 | 35.7 7.2 | 0.0 6.3 | N | 0 | 0.0 10.3 | E | 97 | 0.00 | 7.2 0.0 | 56.8 0.3 | 0.00 | 47.2 1.6 | 65.1 0.1 | 41.1 12.9 |
| Virginia City | 5/3/26 | 2040 | 48.4 3.9 | 57 2 | 34.1 4.6 | 0.6 3.2 | W | 265 | 2.5 5.5 | W | 268 | 0.00 | 8.5 0.0 | 56.0 0.0 | 0.00 | 46.9 4.1 | 63.8 0.4 | 46.7 9.6 |
| Six Mile Canyon | 9/9/25 | 0630 | 60.2 9.6 | 37 6 | 33.7 4.8 | 4.1 2.5 | W | 277 | 6.1 2.9 | WNW | 286 | 0.00 | 12.5 0.0 | 75.5 0.7 | 0.00 | 57.9 7.6 | 64.4 1.9 | 7.0 3.9 |
| Mt Rose Highway | 4/30/26 | 0510 | 40.8 4.7 | 47 13 | 22.3 1.3 | 2.3 0.2 | WSW | 243 | 4.8 2.1 | WSW | 246 | 0.00 | 24.1 0.3 | 43.0 0.8 | 0.00 | 40.5 4.7 | 43.0 5.3 | 7.7 0.4 |
| Pleasant Valley | 5/3/26 | 2040 | 52.8 2.0 | 59 7 | 39.1 4.7 | 1.6 1.4 | NE | 43 | 3.8 1.4 | ENE | 61 | 0.00 | 2.8 0.1 | 63.2 0.7 | 0.05 | 45.9 0.1 | 71.1 2.2 | 44.7 19.2 |
| New Washoe City | 5/3/26 | 2040 | 52.0 0.3 | 57 19 | 37.1 7.7 | 4.4 7.9 | NNE | 23 | 8.2 11.4 | NE | 36 | 0.00 | 4.5 0.0 | 58.4 0.7 | 0.00 | 45.0 1.1 | 68.1 0.6 | 36.6 8.4 |
| Franktown Creek | 5/3/26 | 2040 | 49.2 5.2 | 74 8 | 41.2 2.1 | 0.4 3.9 | WNW | 302 | 2.7 6.0 | NW | 306 | 0.00 | 11.3 0.1 | 56.0 0.4 | 0.06 | 45.5 0.4 | 67.2 0.2 | 28.6 5.6 |
| Musgrove Creek | 5/3/26 | 2040 | 48.6 3.0 | 62 6 | 36.4 5.0 | 1.6 0.2 | SSW | 204 | 2.9 0.9 | SSW | 208 | 0.00 | 43.7 4.6 | 53.0 0.4 | 0.29 | 43.1 6.6 | 64.0 0.5 | 24.3 11.7 |
| East Carson | 11/23/24 | 0110 | 28.6 28.4 | - | - | 4.7 11.0 | SW | 220 | 14.7 10.1 | SW | 219 | 0.02 | - | 50.9 0.1 | 0.02 | -25.9 79.1 | 42.9 14.6 | 16.0 10.7 |
| Kings Canyon | 5/3/26 | 2040 | 50.8 5.1 | 59 3 | 37.0 3.5 | 3.0 2.4 | SSW | 201 | 4.7 7.7 | SSE | 164 | 0.00 | 15.2 0.2 | 58.0 2.1 | 0.04 | 45.1 0.7 | 65.4 2.5 | 29.1 6.6 |
| Carson City (Voltaire Canyon) | 5/3/26 | 2040 | 52.6 3.6 | 57 1 | 37.9 4.0 | 6.8 12.1 | SW | 231 | 11.2 12.9 | SW | 232 | 0.00 | 2.8 0.0 | 62.3 0.2 | 1.22 | 49.2 1.6 | 67.3 2.7 | 64.8 36.8 |
| Jacks Valley | 5/3/26 | 2040 | 49.0 7.9 | 66 12 | 38.3 2.4 | 2.5 5.0 | SW | 233 | 4.2 9.1 | WSW | 248 | 0.00 | 9.6 0.2 | 63.3 3.7 | 0.03 | 46.1 0.8 | 67.0 2.0 | 35.5 10.1 |
| Genoa | 5/3/26 | 2040 | 51.7 8.3 | 68 17 | 41.5 0.3 | 0.0 0.0 | SSW | 208 | 1.5 1.5 | SSW | 207 | 0.00 | 5.6 0.3 | 59.3 6.7 | 0.04 | 46.9 0.7 | 68.0 3.9 | 19.6 8.9 |
| South Genoa (Walleys Hot Springs) | 5/3/26 | 2040 | 53.8 7.7 | 62 15 | 41.2 0.1 | 2.7 6.5 | NW | 318 | 5.3 9.1 | NNW | 332 | 0.00 | 13.4 0.3 | 63.6 0.8 | 0.05 | 46.2 3.3 | 67.3 4.8 | 37.0 15.4 |
| SW Gardnerville (HWY 88) | 5/3/26 | 2040 | 51.3 4.9 | 72 7 | 42.8 2.1 | 0.3 8.2 | SE | 146 | 2.2 8.7 | SSE | 148 | 0.00 | 3.3 0.1 | 57.3 1.4 | 0.02 | 44.0 1.9 | 65.0 5.5 | 48.1 22.7 |
| Sheridan | 5/3/26 | 2040 | 50.0 7.7 | 73 14 | 41.6 1.8 | 4.0 2.9 | SW | 223 | 6.2 3.1 | SW | 228 | 0.00 | 2.4 0.1 | 59.9 1.3 | 0.13 | 46.2 0.4 | 66.6 5.5 | 38.6 15.0 |
| Ruhenstroth | 5/3/26 | 2040 | 50.4 5.7 | 77 14 | 43.6 0.3 | 4.6 2.2 | SSE | 155 | 7.0 2.0 | SSE | 156 | 0.00 | 12.9 0.0 | 58.6 2.6 | 0.02 | 45.5 0.5 | 64.1 6.6 | 44.6 22.2 |
| Double Spring | 5/3/26 | 2040 | 46.6 8.5 | 76 26 | 39.6 2.3 | 3.2 1.9 | NNW | 337 | 4.3 5.8 | NNW | 345 | 0.00 | 28.6 0.1 | 55.7 3.7 | 0.21 | 40.8 1.2 | 58.2 7.4 | 32.5 11.6 |
| North Topaz Lake | 5/3/26 | 2040 | 51.0 7.8 | 61 17 | 38.2 1.3 | 9.9 0.2 | WSW | 258 | 12.8 1.6 | WSW | 256 | 0.00 | 9.0 0.2 | 57.9 4.8 | 0.08 | 46.2 5.4 | 61.1 6.8 | 32.3 10.2 |
| Wild Oat Mountain | 5/3/26 | 2040 | 48.2 9.9 | 65 25 | 37.2 2.9 | 4.6 3.5 | NW | 317 | 8.2 1.7 | NW | 310 | 0.00 | 16.6 0.1 | 58.7 2.3 | 0.05 | 45.2 6.7 | 58.8 6.9 | 36.5 12.3 |
| Smith Valley | 5/3/26 | 2040 | 55.0 6.9 | 51 13 | 37.1 1.0 | 4.5 2.7 | W | 270 | 8.1 3.4 | W | 269 | 0.00 | 5.9 0.1 | 61.6 2.0 | 0.01 | 47.4 1.9 | 67.9 4.7 | 38.1 17.9 |
| Pine Grove Mountain | 5/3/26 | 2040 | 40.6 8.8 | 64 20 | 29.4 1.2 | 4.8 2.5 | NNE | 33 | 9.1 4.1 | NE | 44 | 0.00 | 14.5 0.0 | 50.0 4.4 | 0.10 | 34.8 11.1 | 53.4 5.3 | 41.9 17.4 |
| Paradise Hill | 5/3/26 | 2040 | 68.0 2.0 | 21 3 | 26.6 1.8 | 4.9 0.1 | NNE | 26 | 8.3 0.7 | NNE | 23 | 0.00 | 8.0 0.1 | 60.5 1.0 | 0.00 | 45.6 6.7 | 76.3 1.8 | 30.7 10.8 |
| Winnemucca | 5/3/26 | 2040 | 66.0 4.9 | 23 7 | 26.7 2.1 | 4.2 3.7 | ESE | 114 | 5.2 4.2 | ESE | 120 | 0.00 | 6.0 0.0 | 59.9 0.5 | 0.00 | 52.5 11.4 | 74.7 1.0 | 23.4 3.4 |
| NE Elko | 5/3/26 | 2040 | 59.4 0.1 | 23 5 | 21.4 5.4 | 1.5 0.9 | E | 89 | 3.1 0.6 | E | 87 | 0.00 | 12.5 0.0 | 62.3 0.3 | 0.00 | 40.4 11.8 | 71.7 0.2 | 29.2 12.4 |
| North Elko | 5/3/26 | 2040 | 63.7 0.3 | 17 3 | 18.6 4.7 | 6.6 1.8 | NNW | 337 | 7.7 2.1 | NNW | 333 | 0.00 | 28.5 0.0 | 57.9 0.9 | 0.00 | 49.4 7.0 | 70.1 0.4 | 19.1 0.8 |
| South Elko | 5/3/26 | 2040 | 71.7 18.8 | 21 12 | 30.0 27.3 | 3.7 0.6 | NE | 56 | 4.5 0.1 | ENE | 60 | 0.00 | 18.9 0.1 | 59.2 0.4 | 0.00 | 49.9 3.5 | - | 15.5 4.6 |
| Lamoille | 1/28/26 | 1720 | 33.2 0.5 | 65 17 | 22.8 6.3 | 5.8 1.5 | SSE | 166 | 7.7 1.9 | SE | 139 | 0.00 | 12.2 0.0 | 33.4 0.1 | 0.02 | 23.5 2.0 | 36.5 5.9 | 25.6 17.4 |
| Reid Gardner Sub | 5/3/26 | 2040 | 84.6 10.3 | 15 7 | 31.6 0.2 | 11.0 9.7 | SSW | 197 | 18.5 14.5 | SSW | 201 | 0.00 | 28.3 0.3 | 75.8 0.8 | 0.00 | 48.3 4.4 | 93.0 4.5 | 30.1 16.4 |
| Corn Creek | 5/3/26 | 2040 | 76.3 3.3 | 19 9 | 31.4 16.9 | 6.1 0.4 | SSE | 166 | 10.9 3.9 | S | 189 | 0.00 | 4.0 0.0 | 78.8 0.5 | 0.00 | 61.8 4.8 | 83.6 2.1 | 44.0 18.1 |
| Lucky Strike | 5/3/26 | 2040 | 63.9 1.5 | 23 11 | 25.9 16.8 | 7.0 1.9 | WSW | 239 | 11.2 0.7 | WSW | 255 | 0.00 | 4.6 0.1 | 70.7 1.0 | 0.00 | 56.6 2.2 | 70.2 1.5 | 41.1 16.2 |
| Lower Angel Peak | 5/3/26 | 2040 | 55.4 2.0 | 32 14 | 26.3 15.3 | 3.7 2.1 | SE | 136 | 6.3 1.9 | E | 84 | 0.00 | 10.3 0.2 | 57.2 0.1 | 0.00 | 45.9 3.9 | 65.5 1.4 | 31.6 8.3 |
| Angel Peak | 5/3/26 | 2040 | 46.2 0.4 | 40 20 | 23.1 16.0 | 16.0 5.9 | SSW | 193 | 26.3 13.2 | SSW | 192 | 0.00 | 3.4 0.1 | 53.3 3.0 | 0.01 | 44.4 4.3 | 55.5 1.9 | 50.3 24.8 |
| Upper Kyle Canyon | 5/3/26 | 2040 | 51.0 4.0 | 34 10 | 23.4 11.8 | 10.6 7.4 | E | 95 | 22.7 17.3 | ESE | 110 | 0.00 | 13.7 0.1 | 53.9 1.3 | 0.00 | 42.1 4.5 | 57.9 1.0 | 30.4 11.8 |
| Mt Charleston | 5/3/26 | 2040 | 51.4 3.8 | 34 8 | 23.8 9.8 | 2.0 0.9 | SSW | 198 | 7.3 4.1 | SSE | 164 | 0.00 | 18.4 0.1 | 48.6 0.7 | 0.00 | 44.2 4.5 | 58.4 0.5 | 26.6 10.3 |
| Mid Kyle Canyon | 5/3/26 | 2040 | 57.2 5.9 | 29 6 | 25.7 10.3 | 9.1 1.4 | WSW | 245 | 12.8 1.7 | WSW | 245 | 0.00 | 7.1 0.0 | 59.1 1.3 | 0.00 | 47.3 4.3 | 65.9 1.9 | 33.4 12.0 |
| Blue Diamond | 5/3/26 | 2040 | 74.4 11.4 | 17 0 | 26.5 9.5 | 12.5 10.0 | WNW | 292 | 20.5 15.5 | WNW | 287 | 0.00 | 3.5 0.0 | 69.6 0.2 | 0.00 | 46.2 0.8 | 81.9 2.9 | 28.0 11.2 |
| Artesian Sub | 5/3/26 | 2040 | 84.6 2.4 | 15 7 | 32.5 17.3 | 4.3 4.3 | SSW | 204 | 11.9 11.2 | SSW | 206 | 0.00 | 13.3 0.1 | 73.2 0.1 | 0.00 | 62.9 0.1 | 93.0 5.0 | 25.2 11.3 |
| North Henderson | 5/3/26 | 2040 | 86.2 3.8 | 13 3 | 29.6 10.1 | 8.6 8.3 | SSW | 212 | 16.9 15.3 | SW | 218 | 0.00 | 9.0 0.3 | 79.2 0.5 | 0.00 | 62.2 2.8 | 92.3 4.5 | 32.5 15.9 |
| Sandy Valley | 5/3/26 | 2040 | 75.6 3.4 | 16 6 | 27.0 8.5 | 7.0 1.2 | SE | 132 | 12.2 0.6 | SSE | 156 | 0.00 | 4.6 0.0 | 82.8 2.0 | 0.00 | 54.4 10.8 | 86.6 2.7 | 31.4 3.6 |
| Searchlight | 5/3/26 | 2050 | 73.0 0.2 | 20 9 | 29.9 13.8 | 7.4 5.1 | SSW | 207 | 13.5 9.8 | SSW | 209 | 0.00 | 4.8 0.1 | 79.7 1.5 | 0.00 | 56.7 2.6 | 83.1 2.0 | 35.2 12.4 |
| Laughlin | 5/3/26 | 2040 | 90.2 0.5 | 19 9 | 42.9 15.2 | 17.1 13.8 | S | 182 | 25.0 20.9 | S | 178 | 0.00 | 4.2 0.0 | 85.1 0.9 | 0.00 | 68.7 3.5 | 96.9 2.2 | 35.4 14.5 |
| Max | 90.2 | 94 | 43.6 | 17.1 | - | 26.3 | - | 0.00 | 44.3 | 85.1 | 1.22 | 68.7 | 96.9 | 64.8 | ||
| Avg | 54.3 | 56 | 35.0 | 4.4 | - | 7.4 | - | 0.00 | 13.2 | 58.1 | - | - | - | - | ||
| Min | 38.1 | 13 | 18.6 | 0.0 | - | 0.0 | - | 0.00 | 1.5 | 32.0 | 0.00 | 34.8 | 53.1 | 6.1 |
| Station | Date | Daily Max Temp (°F) | Daily Min Temp (°F) | Daily Max RH (%) | Daily Min RH (%) | Wind Spd (mph) | Wind Dir (°) | Daily Max Wind (mph) | Max Wind Dir (°) | Time of Max Wind | Daily Rain (In) | Weekly Precip (In) | Season Precip (In) | Soil Moist (%) | Fuel Temp (°F) | Fuel Moisture (%) | MinBV Day (V) |
|---|---|---|---|---|---|---|---|---|---|---|---|---|---|---|---|---|---|
| Hobart Mills | 12/23/25 | 51.8 11.3 | 33.9 2.1 | 88 12 | 42 34 | 2.1 1.7 | SW | 224 | 18.4 8.6 | WSW | 240 | 2307 | 0.65 | 6.21 | 15.12 | - | 37.6 2.8 | 42 19 | 8.0 0.7 |
| Prosser Dam | 5/2/26 | 64.5 3.0 | 33.6 6.0 | 98 1 | 33 18 | 2.3 0.1 | WSW | 247 | 17.3 2.7 | SW | 222 | 1344 | 0.10 | 0.29 | 7.74 | 21.2 0.5 | 47.5 6.2 | 20 12 | 12.6 0.1 |
| West Incline Village | 5/2/26 | 57.2 4.0 | 41.9 0.7 | 95 32 | 27 13 | 2.4 0.6 | ENE | 63 | 12.8 2.1 | SSW | 202 | 1203 | 0.12 | 0.19 | 6.70 | 30.8 0.2 | 50.7 4.2 | 13 6 | 12.5 0.1 |
| Incline Village (Fairview Blvd) | 5/2/26 | 58.6 5.6 | 44.3 0.4 | 94 35 | 27 16 | 0.9 0.8 | NNE | 20 | 9.9 2.5 | NNW | 330 | 2024 | 0.11 | 0.11 | 6.29 | 24.2 0.1 | 52.3 4.9 | 9 3 | 12.6 0.0 |
| Incline Village (Diamond Peak) | 5/2/26 | 56.0 2.6 | 45.2 1.4 | 78 21 | 31 17 | 5.9 5.9 | ENE | 72 | 13.8 4.6 | ENE | 71 | 2000 | 0.00 | 0.00 | 0.41 | 8.5 0.1 | -11.5 0.1 | - | 12.4 0.0 |
| Incline Village (Mill Creek) | 5/2/26 | 60.6 3.9 | 44.0 1.5 | 94 33 | 35 22 | 1.0 0.4 | ENE | 58 | 15.8 0.6 | NNE | 13 | 0024 | 0.05 | 0.05 | 5.96 | 9.9 0.0 | - | - | 12.4 0.1 |
| Incline Village (Lakeshore Blvd) | 5/2/26 | 61.2 1.5 | 39.6 3.7 | 96 18 | 34 19 | 1.1 0.0 | NE | 39 | 15.4 3.8 | ENE | 57 | 2014 | 0.08 | 0.08 | 6.13 | 31.7 0.3 | 57.9 1.2 | 13 2 | 12.4 0.0 |
| Glenbrook | 5/2/26 | 61.1 3.3 | 40.3 3.0 | 85 8 | 34 14 | 1.8 0.1 | ENE | 69 | 21.2 3.0 | ENE | 73 | 2024 | 0.00 | 0.18 | 4.79 | 44.3 0.0 | 51.2 0.3 | 11 1 | 12.5 0.0 |
| Zephyr Cove | 5/2/26 | 62.8 0.7 | 43.1 13.7 | 75 19 | 29 6 | 0.3 0.3 | NNW | 332 | 4.6 2.7 | W | 266 | 1300 | 0.00 | 0.13 | 0.66 | - | 47.9 2.4 | - | 12.6 0.2 |
| Kingsbury Grade | 5/2/26 | 61.6 0.0 | 41.8 4.5 | 76 17 | 27 6 | 2.3 0.1 | ENE | 76 | 16.8 1.6 | SSE | 154 | 1752 | 0.00 | 0.03 | 4.87 | 6.0 0.2 | 54.2 0.3 | 6 1 | 12.5 0.0 |
| South Daggett Pass (Ridge) | 5/2/26 | 58.0 0.8 | 44.9 1.8 | 68 11 | 34 9 | 2.2 0.8 | SSE | 147 | 18.9 2.2 | SW | 226 | 1326 | 0.00 | 0.01 | 3.32 | 6.6 0.0 | 51.9 0.4 | 7 1 | 12.5 0.0 |
| Palomino Valley | 5/2/26 | 73.7 0.5 | 41.8 7.8 | 78 23 | 18 9 | 4.6 1.6 | SW | 216 | 28.7 2.9 | WNW | 300 | 1625 | 0.00 | 0.00 | 1.14 | 6.8 0.0 | 58.3 0.8 | 4 1 | 12.6 0.0 |
| East Cold Springs | 5/2/26 | 66.0 3.0 | 48.1 2.5 | 81 36 | 27 11 | 4.7 0.2 | W | 261 | 18.6 7.4 | N | 351 | 1957 | 0.07 | 0.07 | 1.48 | 1.5 0.0 | 54.6 2.7 | 15 8 | 12.6 0.0 |
| Peavine | 5/2/26 | 63.5 2.6 | 45.3 1.1 | 85 43 | 26 10 | 5.0 0.5 | S | 182 | 22.5 4.6 | SSW | 195 | 1755 | 0.02 | 0.02 | 1.49 | - | - | - | 12.6 0.0 |
| West Verdi Peak | 5/2/26 | 61.4 4.6 | 44.5 4.2 | 87 33 | 31 13 | 1.7 0.5 | S | 174 | 16.0 1.1 | WSW | 251 | 1452 | 0.03 | 0.05 | 5.64 | 16.8 0.6 | 51.2 6.0 | 10 4 | 12.6 0.0 |
| West Verdi | 5/2/26 | 67.2 3.1 | 46.7 7.5 | 88 21 | 27 11 | 3.7 0.6 | W | 269 | 19.5 2.5 | W | 262 | 1521 | 0.00 | 0.00 | 5.27 | 7.9 0.1 | 55.0 5.4 | 11 2 | 12.6 0.0 |
| South Verdi | 5/2/26 | 66.0 1.1 | 45.8 2.8 | 83 32 | 27 12 | 7.9 0.1 | WSW | 248 | 24.5 4.8 | WSW | 248 | 1323 | 0.04 | 0.04 | 4.28 | 16.8 0.6 | 56.4 4.1 | 12 5 | 12.6 0.0 |
| Northwest Reno | 5/2/26 | 68.3 2.6 | 51.6 5.2 | 75 33 | 22 8 | 5.8 1.1 | NE | 48 | 28.4 3.1 | ENE | 64 | 1748 | 0.04 | 0.04 | 1.04 | 24.3 0.0 | - | - | 12.6 0.0 |
| North Lawton | 5/2/26 | 67.5 2.8 | 49.5 8.1 | 86 29 | 25 10 | 5.3 0.1 | WSW | 254 | 18.9 2.2 | ENE | 66 | 1752 | 0.03 | 0.03 | 1.73 | - | - | - | 12.5 0.0 |
| West Reno (Mogul) | 5/2/26 | 68.2 1.0 | 48.8 5.8 | 83 30 | 25 11 | 4.2 1.1 | W | 266 | 28.1 4.8 | SSW | 211 | 1332 | 0.02 | 0.02 | 3.92 | 38.9 0.2 | 58.8 3.6 | 4 3 | 12.5 0.0 |
| Caughlin (Hunter Lake Trail) | 9/15/25 | 78.6 1.3 | 52.5 3.7 | 58 7 | 23 2 | 4.2 2.5 | S | 173 | 13.0 20.5 | NNE | 31 | 1309 | 0.00 | 0.32 | 8.05 | 15.7 0.1 | 67.4 0.5 | 7 1 | 12.7 0.0 |
| ArrowCreek | 5/2/26 | 68.2 2.2 | 48.9 4.6 | 75 27 | 22 9 | 4.7 0.7 | S | 186 | 28.9 12.6 | ESE | 112 | 1423 | 0.01 | 0.01 | 4.57 | - | - | - | 12.4 0.0 |
| Tracy | 5/2/26 | 74.1 0.2 | 48.0 4.7 | 68 22 | 19 8 | 4.4 0.0 | WSW | 248 | 23.2 3.1 | SW | 234 | 1331 | 0.00 | 0.00 | 0.86 | 8.0 0.0 | 61.0 1.9 | 6 1 | 12.7 0.0 |
| Virginia Highlands | 5/2/26 | 65.2 0.6 | 48.0 1.2 | 86 51 | 21 9 | 4.0 0.3 | SSW | 204 | 28.2 10.7 | SE | 145 | 1600 | 0.03 | 0.03 | 1.74 | 7.2 0.0 | 55.5 4.7 | 9 4 | 12.6 0.0 |
| Virginia City | 5/2/26 | 64.1 1.4 | 51.0 3.5 | 65 32 | 20 4 | 5.9 2.9 | SSW | 196 | 37.1 21.4 | SSE | 156 | 1550 | 0.00 | 0.00 | 1.45 | 8.5 0.1 | 54.9 1.7 | 5 2 | 12.6 0.0 |
| Six Mile Canyon | 9/8/25 | 98.8 16.5 | 50.2 7.6 | 44 3 | 11 1 | 7.2 0.3 | WSW | 252 | 27.0 4.6 | SSE | 159 | 1325 | 0.00 | 0.00 | 0.89 | 12.6 0.1 | 69.7 3.0 | 4 0 | 12.4 0.2 |
| Mt Rose Highway | 4/29/26 | 56.6 7.9 | 35.6 4.1 | 63 16 | 31 6 | 2.2 0.0 | NW | 305 | 10.8 4.2 | NE | 35 | 1152 | 0.00 | 0.08 | 4.93 | 24.3 0.3 | 47.6 8.0 | 3 0 | 12.4 0.0 |
| Pleasant Valley | 5/2/26 | 68.9 3.0 | 46.0 4.7 | 80 17 | 23 9 | 3.7 0.8 | SSW | 202 | 25.5 10.9 | SE | 136 | 1712 | 0.05 | 0.05 | 2.08 | 2.8 0.0 | 59.5 6.4 | 10 4 | 12.6 0.0 |
| New Washoe City | 5/2/26 | 67.5 2.6 | 46.1 5.3 | 82 35 | 23 10 | 5.3 1.0 | ENE | 57 | 28.2 9.2 | ENE | 75 | 1706 | 0.01 | 0.01 | 1.32 | 4.6 0.0 | 57.8 4.4 | 7 2 | 12.6 0.0 |
| Franktown Creek | 5/2/26 | 67.4 2.5 | 45.2 6.6 | 94 27 | 29 15 | 1.8 0.4 | W | 271 | 23.0 12.8 | SSW | 210 | 1405 | 0.02 | 0.02 | 5.35 | 11.2 0.0 | 56.0 0.9 | 10 2 | 12.6 0.0 |
| Musgrove Creek | 5/2/26 | 64.5 2.3 | 47.1 0.4 | 88 33 | 23 8 | 1.4 0.1 | SW | 220 | 12.7 1.6 | W | 265 | 1521 | 0.05 | 0.09 | 7.08 | 39.1 0.1 | 55.7 3.4 | 15 6 | 12.6 0.0 |
| East Carson | 11/22/24 | 63.8 0.3 | 41.7 4.6 | 85 21 | 21 9 | 14.9 6.0 | SW | 224 | 46.6 12.7 | S | 171 | 1835 | 0.05 | 0.05 | 4.48 | 2.5 0.0 | 53.9 0.3 | 9 0 | 12.6 0.0 |
| Kings Canyon | 5/2/26 | 67.9 1.0 | 45.8 5.5 | 80 28 | 28 13 | 3.4 0.3 | S | 186 | 22.5 7.6 | ENE | 64 | 1649 | 0.02 | 0.02 | 3.88 | 15.5 0.4 | 58.4 4.5 | 6 2 | 12.6 0.0 |
| Carson City (Voltaire Canyon) | 5/2/26 | 70.0 0.2 | 50.9 3.5 | 70 22 | 25 11 | 7.5 3.7 | SSW | 201 | 28.1 12.3 | ESE | 118 | 1642 | 0.00 | 0.00 | 0.09 | 2.8 0.0 | - | - | 12.6 0.0 |
| Jacks Valley | 5/2/26 | 69.0 0.5 | 47.0 3.4 | 79 31 | 25 9 | 3.5 0.2 | WSW | 248 | 25.5 6.3 | NNW | 335 | 2013 | 0.01 | 0.02 | 1.99 | 9.9 0.3 | 58.5 2.6 | 7 1 | 12.6 0.0 |
| Genoa | 5/2/26 | 71.9 0.7 | 47.6 5.1 | 82 26 | 24 10 | 0.4 0.3 | NE | 50 | 10.7 1.0 | NE | 36 | 1640 | 0.01 | 0.01 | 4.75 | 5.8 0.2 | 60.2 1.0 | 9 1 | 12.3 0.0 |
| South Genoa (Walleys Hot Springs) | 5/2/26 | 72.1 0.2 | 42.9 5.9 | 84 4 | 24 9 | 3.6 1.2 | SE | 144 | 21.6 5.7 | S | 176 | 1444 | 0.00 | 0.00 | 2.95 | 13.6 0.0 | 60.5 2.5 | 7 1 | 12.5 0.0 |
| SW Gardnerville (HWY 88) | 5/2/26 | 70.6 0.0 | 42.1 8.3 | 81 3 | 26 9 | 4.6 1.3 | SW | 228 | 25.3 12.4 | S | 177 | 1620 | 0.01 | 0.01 | 0.57 | 3.4 0.0 | 55.9 2.7 | 11 3 | 12.4 0.0 |
| Sheridan | 5/2/26 | 72.1 1.2 | 45.8 6.2 | 73 7 | 23 6 | 3.9 0.6 | SW | 230 | 23.6 9.7 | SW | 223 | 1500 | 0.00 | 0.00 | 3.06 | 2.5 0.1 | 58.9 3.9 | 7 1 | 12.6 0.0 |
| Ruhenstroth | 5/2/26 | 70.7 1.2 | 45.0 5.5 | 70 16 | 23 10 | 3.3 0.1 | S | 190 | 22.4 5.6 | S | 171 | 1624 | 0.00 | 0.00 | 1.42 | 13.0 0.2 | 57.9 1.8 | 8 1 | 12.6 0.0 |
| Double Spring | 5/2/26 | 65.6 1.7 | 39.6 9.0 | 86 22 | 25 15 | 3.7 0.0 | NE | 48 | 21.0 2.7 | SE | 128 | 1704 | 0.12 | 0.12 | 1.66 | 28.8 0.1 | 54.3 0.9 | 8 2 | 12.6 0.0 |
| North Topaz Lake | 5/2/26 | 67.9 1.0 | 51.6 3.7 | 65 24 | 24 14 | 4.4 0.5 | N | 352 | 22.1 4.7 | NE | 50 | 1654 | 0.05 | 0.05 | 1.14 | 9.1 0.2 | 58.7 4.1 | 7 3 | 12.6 0.0 |
| Wild Oat Mountain | 5/2/26 | 65.6 2.6 | 49.7 3.5 | 68 27 | 25 12 | 4.0 0.8 | N | 3 | 24.2 5.6 | NE | 38 | 1700 | 0.00 | 0.00 | 1.25 | 16.7 0.1 | 57.6 2.6 | 6 1 | 12.6 0.0 |
| Smith Valley | 5/2/26 | 72.5 0.4 | 45.6 2.8 | 61 12 | 21 9 | 4.2 0.3 | WNW | 288 | 20.2 5.8 | E | 96 | 1555 | 0.00 | 0.00 | 0.86 | 6.0 0.0 | 60.0 3.9 | 6 0 | 12.6 0.0 |
| Pine Grove Mountain | 5/2/26 | 58.7 1.6 | 44.7 3.2 | 63 25 | 20 2 | 7.8 2.0 | ESE | 104 | 24.5 4.3 | E | 97 | 1818 | 0.02 | 0.10 | 0.36 | 14.5 0.0 | 52.2 0.6 | 6 2 | 12.6 0.0 |
| Paradise Hill | 5/2/26 | 74.6 2.8 | 38.9 0.3 | 53 4 | 16 2 | 4.4 1.0 | SW | 214 | 19.9 0.6 | N | 350 | 1851 | 0.00 | 0.00 | 2.33 | 8.1 0.0 | 62.7 1.9 | 6 0 | 12.6 0.0 |
| Winnemucca | 5/2/26 | 75.7 4.1 | 41.1 2.6 | 43 7 | 15 3 | 4.7 2.4 | ESE | 105 | 20.0 1.6 | SSW | 194 | 1256 | 0.00 | 0.09 | 2.90 | 5.9 0.0 | 64.4 2.0 | 1 1 | 12.6 0.0 |
| NE Elko | 5/2/26 | 71.9 3.8 | 28.6 5.3 | 51 7 | 10 4 | 2.8 0.3 | ESE | 118 | 16.8 0.1 | SE | 146 | 1519 | 0.00 | 0.01 | 2.29 | 12.5 0.0 | 54.2 1.2 | 3 1 | 12.6 0.0 |
| North Elko | 5/2/26 | 69.7 4.6 | 42.5 0.8 | 34 0 | 10 2 | 4.6 2.2 | NNE | 24 | 18.4 0.4 | S | 184 | 1238 | 0.00 | 0.00 | 2.04 | 28.4 0.1 | 59.6 1.7 | 3 1 | 12.6 0.0 |
| South Elko | 5/2/26 | - | 46.3 2.4 | 90 10 | 14 3 | 5.1 0.2 | SE | 146 | 20.1 0.5 | SE | 125 | 1100 | 0.00 | 0.00 | 2.67 | 19.0 0.0 | 56.5 2.1 | 3 1 | 12.6 0.0 |
| Lamoille | 1/27/26 | 42.4 2.7 | 21.5 6.4 | 60 0 | 25 6 | 2.6 0.5 | SE | 125 | 8.2 4.1 | SE | 139 | 0137 | 0.00 | 0.00 | 0.67 | 12.3 0.2 | 26.9 1.3 | 11 0 | 8.5 2.8 |
| Reid Gardner Sub | 5/2/26 | 88.5 2.3 | 52.7 10.1 | 36 9 | 8 1 | 2.5 2.2 | WNW | 300 | 13.7 6.6 | NNE | 14 | 1530 | 0.00 | 0.00 | 0.56 | 25.4 0.1 | 76.1 4.0 | 1 0 | 12.6 0.0 |
| Corn Creek | 5/2/26 | 81.5 2.0 | 57.0 5.7 | 21 5 | 9 4 | 6.9 1.6 | SE | 129 | 25.8 1.7 | E | 88 | 1513 | 0.00 | 0.00 | 0.63 | 4.1 0.0 | 73.0 0.9 | 1 0 | 12.5 0.0 |
| Lucky Strike | 5/2/26 | 68.7 0.8 | 54.4 0.8 | 19 10 | 10 4 | 8.5 0.8 | SSE | 160 | 25.0 7.2 | ENE | 71 | 1330 | 0.00 | 0.00 | 1.21 | 4.4 0.0 | 65.1 1.5 | 2 1 | 12.6 0.0 |
| Lower Angel Peak | 5/2/26 | 64.1 2.4 | 42.0 0.1 | 33 10 | 14 4 | 4.9 1.3 | SE | 137 | 23.2 5.8 | NNW | 333 | 1327 | 0.00 | 0.01 | 1.93 | 10.5 0.1 | 57.2 2.2 | 3 1 | 12.6 0.0 |
| Angel Peak | 5/2/26 | 53.6 0.2 | 40.1 0.6 | 32 12 | 18 4 | 9.7 6.5 | SE | 126 | 25.5 0.6 | SE | 138 | 1428 | 0.00 | 0.01 | 84.70 | 3.5 0.0 | 50.0 0.2 | 5 1 | 12.5 0.0 |
| Upper Kyle Canyon | 5/2/26 | 58.9 3.0 | 37.6 0.5 | 36 12 | 15 4 | 4.7 0.9 | NNE | 13 | 18.6 2.0 | ESE | 106 | 1118 | 0.00 | 0.15 | 5.08 | 13.8 0.0 | 54.6 5.6 | 7 1 | 12.6 0.0 |
| Mt Charleston | 5/2/26 | 58.9 2.1 | 39.7 0.1 | 38 11 | 16 3 | 2.8 0.5 | WSW | 254 | 16.3 3.0 | SE | 131 | 0937 | 0.00 | 0.17 | 5.28 | 18.5 0.1 | 56.4 6.2 | 29 0 | 12.6 0.0 |
| Mid Kyle Canyon | 5/2/26 | 64.0 0.2 | 43.0 0.4 | 32 12 | 15 2 | 9.0 0.8 | NNW | 343 | 21.4 0.5 | WNW | 301 | 0526 | 0.00 | 0.02 | 2.08 | 7.1 0.0 | 62.9 5.2 | 6 1 | 12.7 0.0 |
| Blue Diamond | 5/2/26 | 79.0 0.4 | 45.4 0.0 | 33 12 | 8 3 | 3.8 0.7 | W | 276 | 16.8 2.2 | ESE | 122 | 1244 | 0.00 | 0.00 | 0.85 | 3.5 0.0 | - | 3 1 | 12.7 0.0 |
| Artesian Sub | 5/2/26 | 88.0 1.0 | 63.0 1.3 | 25 3 | 6 3 | 1.2 1.5 | NE | 40 | 13.9 1.7 | NNE | 25 | 0942 | 0.00 | 0.00 | 0.35 | 13.4 0.1 | - | 0 0 | 12.6 0.0 |
| North Henderson | 5/2/26 | 87.8 1.8 | 65.1 4.1 | 27 4 | 7 2 | 2.8 2.2 | WNW | 302 | 16.6 2.1 | ENE | 66 | 1348 | 0.00 | 0.00 | 0.52 | 8.8 0.1 | 80.5 0.2 | 4 0 | 12.7 0.0 |
| Sandy Valley | 5/2/26 | 83.9 0.1 | 65.2 4.5 | 18 8 | 9 3 | 8.9 1.1 | ESE | 102 | 35.0 3.5 | E | 85 | 0142 | 0.00 | 0.00 | 0.62 | 4.6 0.0 | 79.1 1.4 | 3 1 | 12.8 0.0 |
| Searchlight | 5/2/26 | 81.1 2.7 | 59.3 4.2 | 20 7 | 10 6 | 6.5 5.2 | NE | 39 | 22.7 8.7 | ESE | 122 | 1302 | 0.00 | 0.00 | 0.51 | 4.7 0.0 | 74.7 2.6 | 0 0 | 12.6 0.0 |
| Laughlin | 5/2/26 | 94.7 1.7 | 72.2 3.6 | 23 1 | 9 3 | 7.1 7.0 | N | 3 | 20.9 13.3 | NNE | 24 | 0944 | 0.00 | 0.00 | 0.29 | 4.2 0.0 | 85.4 0.3 | 3 0 | 12.8 0.0 |
| Max | 94.7 | 72.2 | 98 | 35 | 9.7 | - | 37.1 | - | - | 0.12 | - | 84.70 | 44.3 | 85.4 | 29 | 12.8 | |
| Avg | - | - | - | - | 4.2 | - | - | - | - | - | - | - | 13.1 | 57.7 | 7 | - | |
| Min | 53.6 | 28.6 | 18 | 6 | 0.3 | - | 4.6 | - | - | 0.00 | - | 0.09 | 1.5 | -11.5 | 0 | 12.3 |